Location: Zagreb
(45.8000°N, 16.0000°E)
Time: 22:00:45
(UTC+02:00)

Courier 1B - All Passes

Search period start: 09 August 2022 00:00
Search period end: 19 August 2022 00:00
Orbit: 963 x 1209 km, 28.3° (Epoch: 08 August)

Date Brightness Start Highest point End Pass type
(mag) Time Alt. Az. Time Alt. Az. Time Alt. Az.
09 Aug - 12:56:31 10° S 12:57:50 11° SSE 12:59:10 10° SSE daylight
09 Aug - 14:46:48 10° SSW 14:50:33 16° S 14:54:18 10° SE daylight
09 Aug - 16:40:15 10° SW 16:43:19 14° SSW 16:46:26 10° SSE daylight
10 Aug - 13:53:34 10° SSW 13:57:06 15° S 14:00:38 10° SE daylight
10 Aug - 15:46:25 10° SW 15:49:52 15° S 15:53:21 10° SSE daylight
11 Aug - 13:00:28 10° SSW 13:03:40 14° S 13:06:50 10° SE daylight
11 Aug - 14:52:45 10° SW 14:56:26 16° S 15:00:06 10° SSE daylight
12 Aug - 12:07:38 10° S 12:10:13 12° SSE 12:12:49 10° SE daylight
12 Aug - 13:59:12 10° SW 14:02:58 16° S 14:06:45 10° SE daylight
12 Aug - 15:53:28 10° SW 15:55:43 12° SSW 15:57:57 10° S daylight
13 Aug - 11:15:21 10° S 11:16:47 11° SSE 11:18:12 10° SSE daylight
13 Aug - 13:05:45 10° SSW 13:09:31 16° S 13:13:16 10° SE daylight
13 Aug - 14:59:15 10° SW 15:02:17 14° SSW 15:05:18 10° SSE daylight
14 Aug - 12:12:24 10° SSW 12:16:04 15° S 12:19:41 10° SE daylight
14 Aug - 14:05:21 10° SW 14:08:51 15° S 14:12:20 10° SSE daylight
15 Aug - 11:19:11 10° SSW 11:22:36 14° S 11:25:58 10° SE daylight
15 Aug - 13:11:34 10° SW 13:15:24 16° S 13:19:10 10° SSE daylight
15 Aug - 15:07:33 10° SSW 15:08:06 10° SSW 15:08:38 10° SSW daylight
16 Aug - 10:26:11 10° SSW 10:29:08 13° SSE 10:32:01 10° SE daylight
16 Aug - 12:17:55 10° SW 12:21:56 17° S 12:25:53 10° SE daylight
16 Aug - 14:12:11 10° SW 14:14:41 12° SSW 14:17:10 10° S daylight
17 Aug - 09:33:38 10° S 09:35:39 11° SSE 09:37:39 10° SE daylight
17 Aug - 11:24:21 10° SW 11:28:28 17° S 11:32:28 10° SE daylight
17 Aug - 13:17:55 10° SW 13:21:15 14° SSW 13:24:32 10° SSE daylight
18 Aug - 10:30:53 10° SSW 10:34:58 16° S 10:38:55 10° SE daylight
18 Aug - 12:23:55 10° SW 12:27:48 16° S 12:31:35 10° SSE daylight
